Total_Precipitation_Accumulation
2.71 2.74 2.58 2.63 2.59 2.80 3.25 3.82 3.73 3.89 3.81 3.41 2.92 2.77 2.80 2.63 2.59 2.54 2.17 2.22 2.46 2.50 2.57 2.61 2.60 2.55 2.57 2.47 2.27 2.09 1.87 1.71 1.49 1.22 1.04 0.99 1.08 1.04 0.89 0.78 0.71 0.61 0.54
2.50 2.47 2.43 2.64 2.68 2.60 2.76 3.22 3.37 3.76 3.70 3.32 2.77 2.54 2.50 2.55 2.46 2.43 2.24 2.24 2.37 2.22 2.28 2.61 2.89 3.02 2.92 2.76 2.59 2.39 2.13 1.94 1.68 1.34 1.17 1.08 0.94 0.93 0.95 0.84 0.75 0.66 0.54
2.20 2.18 2.28 2.29 2.35 2.26 2.34 2.56 2.77 3.05 3.01 2.86 2.76 2.63 2.51 2.40 2.23 2.27 2.33 2.25 2.00 2.10 2.24 2.42 2.69 2.88 3.06 3.20 3.12 2.88 2.57 2.17 1.80 1.46 1.19 1.01 0.89 0.79 0.76 0.76 0.74 0.68 0.55
1.70 1.80 1.84 1.82 1.83 1.68 1.80 2.15 2.23 2.50 2.72 2.77 2.87 2.62 2.44 2.48 2.28 2.27 2.23 2.25 2.28 1.99 2.27 2.36 2.44 2.50 2.88 3.25 3.37 3.42 3.04 2.49 2.02 1.70 1.38 1.12 0.96 0.81 0.68 0.63 0.66 0.67 0.57
1.47 1.64 1.78 1.83 1.53 1.52 1.62 1.51 1.93 2.17 2.42 2.50 2.15 2.27 2.07 2.11 2.01 1.78 1.81 1.74 1.99 2.02 2.18 2.13 2.22 2.25 2.61 3.34 3.83 4.03 3.82 3.15 2.50 2.12 1.91 1.59 1.35 1.09 0.85 0.69 0.63 0.59 0.53
1.55 1.75 1.61 1.58 1.44 1.68 1.89 1.97 2.27 2.21 2.15 2.21 1.85 1.98 1.83 1.66 1.66 1.60 1.48 1.55 1.65 1.57 1.85 2.09 2.17 1.92 2.21 2.91 3.56 3.94 4.13 3.95 3.36 2.75 2.47 2.25 2.04 1.62 1.15 0.91 0.76 0.68 0.61
1.69 1.90 1.68 1.97 1.74 1.73 1.84 1.88 2.04 2.01 1.86 1.82 2.16 2.27 1.79 1.37 1.38 1.27 1.23 1.45 1.49 1.54 1.83 2.12 2.24 2.25 2.05 1.93 2.15 2.79 3.55 4.20 4.25 3.63 3.13 2.86 2.65 2.13 1.50 1.26 1.11 0.91 0.81
1.58 1.54 1.88 1.75 1.79 1.92 1.95 2.02 2.14 2.12 1.89 1.85 2.18 2.55 2.24 2.12 1.85 1.11 1.19 1.36 1.44 1.66 1.73 1.73 1.94 2.25 2.04 2.17 1.66 1.63 2.39 3.16 4.01 4.09 3.62 3.18 2.99 2.58 2.00 1.66 1.42 1.24 1.11
1.37 1.45 1.52 1.59 1.84 1.67 1.99 2.22 2.15 2.22 2.19 2.00 2.03 2.43 2.49 2.43 2.03 1.52 1.23 1.20 1.38 1.74 1.77 1.79 1.68 1.87 2.09 2.32 2.20 1.72 1.77 1.99 2.83 3.81 4.02 3.51 2.95 2.56 2.26 2.10 1.90 1.60 1.44
1.33 1.35 1.38 1.59 1.81 1.64 2.11 1.80 1.92 2.13 2.28 2.09 2.00 1.86 1.93 2.14 2.26 2.10 1.70 1.32 1.31 1.50 1.65 1.56 1.56 1.78 1.99 2.04 2.08 1.61 1.32 1.33 1.96 2.98 3.64 3.67 3.21 2.71 2.37 2.34 2.47 2.33 1.95
1.48 1.30 1.41 1.60 1.68 1.64 1.83 1.92 2.21 2.08 2.02 1.99 2.01 2.03 2.10 2.03 1.83 1.96 1.98 1.80 1.61 1.26 1.18 1.28 1.43 1.56 1.64 1.82 2.12 1.68 1.31 1.31 1.46 1.82 2.28 2.70 2.89 2.75 2.54 2.61 2.98 3.23 3.03
1.49 1.40 1.48 1.64 1.61 1.60 1.75 1.84 1.99 1.97 2.03 2.10 1.95 1.86 2.02 1.97 1.87 1.90 1.73 1.64 1.63 1.19 1.03 1.04 1.15 1.37 1.47 1.65 1.66 1.44 1.42 1.62 1.60 1.51 1.51 1.68 2.02 2.29 2.41 2.57 2.93 3.44 3.71
1.35 1.38 1.52 1.76 1.70 1.72 1.76 1.93 1.95 1.91 1.96 2.00 1.85 1.72 1.68 1.57 1.67 1.79 1.85 1.62 1.48 1.13 1.14 1.02 1.07 1.18 1.18 1.58 1.91 1.88 1.63 1.71 1.59 1.50 1.49 1.46 1.56 1.75 1.86 2.03 2.38 2.81 3.28
1.44 1.39 1.51 1.57 1.61 1.69 1.73 2.11 1.89 1.79 1.85 1.81 1.63 1.86 1.76 1.45 1.50 1.62 1.81 1.99 1.81 1.52 1.49 1.32 1.22 1.27 1.31 1.55 1.87 2.02 1.67 1.61 1.41 1.31 1.27 1.25 1.27 1.33 1.43 1.52 1.64 1.81 2.05
1.54 1.49 1.44 1.47 1.56 1.71 1.86 2.03 1.92 1.91 1.97 1.76 1.67 1.83 1.71 1.53 1.48 1.44 1.68 2.03 2.28 2.07 1.83 1.65 1.51 1.47 1.50 1.55 1.78 1.65 1.70 1.65 1.47 1.32 1.19 1.11 1.08 1.05 1.05 1.12 1.21 1.25 1.29
1.44 1.52 1.56 1.54 1.62 1.70 1.87 2.01 2.01 2.11 2.14 1.96 1.84 1.84 1.74 1.58 1.66 1.50 1.56 1.85 2.10 2.25 2.03 1.52 1.54 1.51 1.60 1.46 1.70 1.61 1.74 1.70 1.45 1.32 1.19 1.11 1.06 1.03 1.01 1.03 1.09 1.18 1.22
1.50 1.54 1.61 1.64 1.66 1.71 1.88 1.98 1.86 2.07 2.17 2.21 2.01 1.93 1.87 1.86 1.87 1.72 1.73 1.83 1.92 2.14 2.10 1.67 1.59 1.72 1.82 1.72 1.77 1.73 1.67 1.69 1.50 1.43 1.22 1.12 1.06 1.02 1.03 1.02 1.03 1.03 1.07
1.63 1.63 1.68 1.78 1.78 1.80 1.91 1.87 1.72 1.81 1.99 2.18 2.35 2.42 2.18 2.12 2.10 1.93 1.90 1.86 1.90 2.08 2.11 1.96 1.86 1.91 1.93 1.85 1.82 1.66 1.43 1.35 1.38 1.48 1.37 1.22 1.13 1.06 1.01 0.99 1.00 0.98 0.98
1.87 1.89 1.92 1.88 1.90 1.94 1.90 1.81 1.81 1.86 1.96 2.02 2.22 2.40 2.39 2.50 2.28 2.22 2.12 2.01 1.96 1.92 2.07 1.98 1.85 2.04 2.04 2.01 1.91 1.58 1.46 1.47 1.31 1.49 1.46 1.24 1.12 1.07 1.01 0.96 0.92 0.92 0.91
2.05 2.06 2.08 2.02 1.98 2.01 1.99 1.94 1.92 1.92 1.99 1.98 2.01 2.09 2.21 2.48 2.48 2.47 2.28 2.24 2.23 2.21 2.27 2.18 2.08 2.18 2.35 2.38 2.21 1.83 1.68 1.60 1.46 1.30 1.38 1.25 1.18 1.12 1.04 0.96 0.91 0.88 0.88
2.15 2.27 2.25 2.15 2.12 2.12 1.95 2.06 2.23 2.21 2.28 2.11 2.03 1.98 1.97 2.20 2.28 2.28 2.04 2.12 2.28 2.33 2.36 2.32 2.29 2.35 2.41 2.53 2.23 1.98 1.80 1.75 1.67 1.48 1.40 1.22 1.17 1.10 1.11 1.12 1.06 0.98 0.91
2.50 2.40 2.29 2.31 2.28 2.06 2.17 2.22 2.14 2.19 2.36 2.36 2.24 2.17 2.05 2.00 1.98 2.00 2.04 2.08 2.16 2.16 2.20 2.24 2.21 2.25 2.32 2.42 2.52 2.35 2.10 1.92 1.74 1.56 1.57 1.39 1.30 1.23 1.11 1.02 1.13 1.10 1.01
2.54 2.41 2.39 2.39 2.31 2.34 2.28 2.04 1.90 1.93 2.01 2.11 2.18 2.17 1.93 1.80 1.95 1.88 2.03 2.05 1.91 1.85 1.83 1.93 1.96 2.01 2.39 2.66 2.90 2.61 2.36 2.15 1.90 1.75 1.69 1.45 1.33 1.23 1.10 1.06 1.17 1.03 0.96
2.54 2.49 2.43 2.29 2.22 2.15 2.14 1.92 1.88 1.81 1.78 1.74 1.84 1.94 1.90 1.82 1.83 1.91 1.85 1.65 1.51 1.50 1.52 1.45 1.50 1.72 2.10 2.59 2.86 2.85 2.79 2.55 2.26 1.89 1.67 1.43 1.21 1.14 1.08 1.07 1.19 1.11 1.00
2.47 2.33 2.21 2.14 2.08 2.12 2.26 2.04 1.93 1.79 1.80 1.68 1.66 1.65 1.66 1.56 1.66 1.71 1.63 1.46 1.34 1.30 1.33 1.34 1.32 1.47 1.73 2.06 2.44 2.62 2.53 2.33 1.98 1.60 1.44 1.32 1.18 1.19 1.14 1.06 1.08 1.21 1.13
2.66 2.62 2.46 2.33 2.23 2.20 2.33 2.07 1.91 1.76 1.80 1.77 1.76 1.74 1.78 1.59 1.50 1.40 1.34 1.36 1.21 1.12 1.21 1.19 1.16 1.20 1.32 1.58 1.98 2.08 2.08 2.10 1.88 1.61 1.34 1.32 1.24 1.37 1.28 1.08 1.01 1.07 1.11